Location: Florence
(33.9745°N, 118.2481°W)
Time: 19:23:14
(UTC+00:00)

Meteor 1-14 Rocket - Pass Details

Date: 23 March 2023
Orbit: 834 x 918 km, 81.3° (Epoch: 05 June)

Event Time Altitude Azimuth Distance (km) Brightness Sun altitude
Rises 12:48:56 0° 348° (NNW) 3,387 7.3 -14.0°
Reaches altitude 10° 12:51:21 10° 345° (NNW) 2,450 6.6 -13.5°
Maximum altitude 12:56:49 65° 265° (W) 921 4.1 -12.4°
Drops below altitude 10° 13:02:19 10° 184° (S) 2,459 6.5 -11.2°
Sets 13:04:45 0° 182° (S) 3,400 7.2 -10.7°
